Terminal Aerodrome Forecast
Issued by NWS Omaha/Valley, NE

Home | Current Version | Previous Version | Graphics & Text | Print | Product List | Glossary On
Versions: 1 2 3 4 5 6 7 8 9 10 11 12 13 14 15 16 17 18 19 20 21 22 23 24 25 26 27 28 29 30 31 32 33 34
000
FTUS43 KOAX 251123
TAFOFK
TAF
KOFK 251123Z 2512/2612 20015G22KT P6SM BKN250
     FM251500 24012KT P6SM BKN250
     FM251700 28012KT P6SM BKN250
     FM252100 32011KT P6SM BKN250
     FM252300 VRB05KT P6SM BKN250=

USA.gov is the U.S. government's official web portal to all federal, state and local government web resources and services.